COSMOS 2485 (747) 1 39155C 13019A 22225.99979167 .00000000 00000+0 00000+0 0 2257 2 39155 64.8160 120.8980 0021582 231.1327 262.2457 2.13102078 18 GLONASS131 [COD] 1 39155C 13019A 22226.99979167 .00000000 00000+0 00000+0 0 2269 2 39155 64.8162 120.8641 0021495 231.1913 309.3529 2.13102060 12 GLONASS131 [NER] 1 39155C 13019A 22226.00000000 .00000000 00000+0 00000+0 0 2262 2 39155 64.8159 120.8979 0021562 231.1970 262.3413 2.13102066 16